This is the latest recevied weather packets stored in our database for station/object WX7EM. If no packets are shown the sender has not sent any weather packets the latest 10 day(s).
| Time | Temp. | Humidity | Pressure | Rain* | Wind** | Luminosity | Snow |
|---|---|---|---|---|---|---|---|
| 1777796606 | 10.56° C | 99% | 1011.2 hPa | 0 mm | - | 0 W/m² | - |
| 1777796301 | 10.56° C | 99% | 1011.1 hPa | 0 mm | - | 0 W/m² | - |
| 1777795997 | 10.56° C | 99% | 1011.1 hPa | 0 mm | - | 0 W/m² | - |
| 1777795694 | 10.56° C | 99% | 1011.1 hPa | 0 mm | - | 0 W/m² | - |
| 1777795391 | 10.56° C | 99% | 1011.4 hPa | 0 mm | - | 0 W/m² | - |
| 1777795087 | 11.11° C | 99% | 1011.2 hPa | 0 mm | - | 0 W/m² | - |
| 1777794783 | 11.11° C | 99% | 1011.3 hPa | 0 mm | - | 0 W/m² | - |
| 1777794480 | 11.11° C | 99% | 1011.3 hPa | 0 mm | - | 0 W/m² | - |
| 1777794175 | 11.11° C | 99% | 1011.3 hPa | 0 mm | - | 0 W/m² | - |
| 1777793871 | 11.67° C | 99% | 1011.5 hPa | 0 mm | - | 0 W/m² | - |
| 1777793569 | 11.67° C | 99% | 1011.6 hPa | 0 mm | - | 0 W/m² | - |
| 1777793267 | 11.67° C | 99% | 1011.6 hPa | 0 mm | - | 0 W/m² | - |
| 1777792964 | 11.67° C | 99% | 1011.4 hPa | 0 mm | - | 0 W/m² | - |
| 1777792660 | 11.67° C | 99% | 1011.5 hPa | 0 mm | - | 0 W/m² | - |
| 1777792357 | 11.67° C | 98% | 1011.6 hPa | 0 mm | - | 0 W/m² | - |
| 1777792054 | 11.67° C | 98% | 1011.4 hPa | 0 mm | - | 0 W/m² | - |
| 1777791752 | 11.67° C | 97% | 1011.5 hPa | 0 mm | - | 0 W/m² | - |
| 1777791450 | 12.22° C | 98% | 1011.4 hPa | 0 mm | - | 0 W/m² | - |
| 1777791147 | 12.22° C | 98% | 1011.5 hPa | 0 mm | - | 0 W/m² | - |
| 1777790844 | 12.78° C | 97% | 1011.7 hPa | 0 mm | - | 0 W/m² | - |
| 1777790542 | 12.22° C | 98% | 1011.6 hPa | 0 mm | - | 0 W/m² | - |
| 1777790238 | 12.78° C | 97% | 1011.8 hPa | 0 mm | - | 0 W/m² | - |
| 1777789937 | 12.78° C | 97% | 1011.6 hPa | 0 mm | - | 0 W/m² | - |
| 1777789635 | 12.78° C | 97% | 1011.6 hPa | 0 mm | - | 0 W/m² | - |
| 1777789334 | 12.78° C | 96% | 1011.6 hPa | 0 mm | - | 0 W/m² | - |
* Rain latest hour (hover to see other rain measurements)
** Current wind speed in m/s (hover to see current wind gust speed)